Location: STAR School
(35.3054°N, 111.2976°W)
Time: 15:19:04
(UTC-07:00)

Transit 2A - Pass Details

Date: 30 May 2019
Orbit: 593 x 966 km, 66.7° (Epoch: 24 June)

Event Time Altitude Azimuth Distance (km) Brightness Sun altitude
Rises 04:31:19 0° 166° (SSE) 3,498 9.2 -8.0°
Reaches altitude 10° 04:34:20 10° 151° (SSE) 2,610 8.7 -7.5°
Maximum altitude 04:38:50 22° 104° (ESE) 1,963 8.7 -6.8°
Drops below altitude 10° 04:43:27 10° 57° (ENE) 2,699 10.7 -6.0°
Sets 04:46:38 0° 43° (NE) 3,652 11.4 -5.4°
